GW0843 Weather Reports


Display with metric or nautical units.
time (UTC)temp
F
wind
direction
speed
MPH
gust
MPH
rain 1hr
in
rain 24hr
in
rain mn
in
humidity
%
barometer
mb
20260901054427 54 262 2.0 2.0 0.00 0.07 0.07 95 1026.3
20260901053424 54 204 1.0 1.0 0.00 0.07 0.07 95 1026.2
20260901052420 54 212 1.0 1.0 0.00 0.07 0.07 95 1026.5
20260901051415 54 218 3.0 3.0 0.00 0.07 0.07 96 1026.6
20260901050411 54 203 1.0 1.0 0.00 0.07 0.07 96 1026.8
20260901045411 55 204 0.0 1.0 0.00 0.07 0.07 95 1027.2
20260901044408 55 215 0.0 0.0 0.07 0.07 0.07 95 1027.2
20260901043406 55 200 0.0 1.0 0.00 0.06 0.06 94 1027.4
20260901042407 56 258 3.0 3.0 0.00 0.05 0.05 92 1027.8
20260901041402 56 203 1.0 2.0 0.00 0.05 0.05 90 1027.6
20260901040401 56 238 2.0 2.0 0.00 0.05 0.05 90 1027.6
20260901035400 57 214 1.0 1.0 0.00 0.05 0.05 88 1027.3
20260901034359 57 205 2.0 2.0 0.00 0.05 0.05 86 1027.4
20260901033400 56 241 1.0 1.0 0.00 0.05 0.05 88 1027.7
20260901032358 56 212 0.0 1.0 0.00 0.05 0.05 93 1027.3
20260901031355 55 267 3.0 3.0 0.00 0.05 0.05 93 1027.8
20260901030350 56 266 2.0 2.0 0.07 0.05 0.05 92 1027.7
20260901025349 57 218 1.0 1.0 0.00 0.04 0.04 87 1027.7
20260901024349 57 257 1.0 1.0 0.05 0.04 0.04 88 1027.9
20260901023349 57 293 5.0 6.0 0.00 0.03 0.03 86 1027.9
20260901022346 57 236 3.0 3.0 0.00 0.03 0.03 86 1027.4
20260901021343 57 264 2.0 2.0 0.00 0.03 0.03 89 1027.4
20260901020338 58 237 3.0 3.0 0.00 0.03 0.03 81 1027.4
20260901015335 59 239 3.0 3.0 0.07 0.03 0.03 83 1027.7
20260901014330 59 200 1.0 1.0 0.00 0.02 0.02 82 1027.4
20260901013326 62 264 1.0 2.0 0.05 0.02 0.02 74 1027.2
20260901012322 64 275 2.0 2.0 0.00 0.01 0.01 68 1027.4
20260901011319 63 304 3.0 5.0 0.00 0.01 0.01 67 1026.7
20260901010319 63 219 0.0 1.0 0.00 0.01 0.01 69 1026.8
20260901005314 63 113 0.0 1.0 0.00 0.01 0.01 73 1027.0
20260901004314 62 208 0.0 0.0 0.00 0.01 0.01 78 1026.6
20260901003309 62 214 1.0 2.0 0.00 0.01 0.01 76 1026.8
20260901002309 61 261 1.0 1.0 0.00 0.01 0.01 78 1026.7
20260901001305 62 145 1.0 1.0 0.00 0.01 0.01 78 1026.3
20260901000303 61 283 2.0 2.0 0.00 0.01 0.01 75 1026.8
20260831235301 61 202 3.0 3.0 0.07 0.01 0.01 77 1026.5
20260831234300 62 268 6.0 7.0 0.00 0.00 0.00 73 1026.6
20260831233257 69 263 6.0 8.0 0.00 0.00 0.00 59 1026.2
20260831232255 72 239 1.0 2.0 0.00 0.00 0.00 46 1026.0
20260831231253 72 53 6.0 9.0 0.00 0.00 0.00 44 1025.6
20260831230248 73 86 3.0 5.0 0.00 0.00 0.00 44 1025.5
20260831225243 73 84 5.0 8.0 0.00 0.00 0.00 43 1025.2
20260831224239 73 60 3.0 6.0 0.00 0.00 0.00 42 1025.4
20260831223236 74 69 8.0 10.0 0.00 0.00 0.00 42 1025.5
20260831222233 74 87 4.0 6.0 0.00 0.00 0.00 41 1025.5
20260831221230 74 71 4.0 7.0 0.00 0.00 0.00 42 1025.6
20260831220226 77 88 1.0 1.0 0.00 0.00 0.00 37 1025.2
20260831215222 75 63 3.0 3.0 0.00 0.00 0.00 37 1025.2
20260831214222 76 55 1.0 1.0 0.00 0.00 0.00 37 1025.4
20260831213219 77 278 3.0 3.0 0.00 0.00 0.00 36 1025.8
20260831212217 77 323 2.0 3.0 0.00 0.00 0.00 37 1026.0
20260831211216 75 341 5.0 6.0 0.00 0.00 0.00 37 1026.0
20260831210213 78 299 3.0 3.0 0.00 0.00 0.00 35 1026.1
20260831205208 75 226 1.0 2.0 0.00 0.00 0.00 38 1026.3
20260831204207 75 290 3.0 5.0 0.00 0.00 0.00 38 1026.3
20260831203207 76 278 5.0 8.0 0.00 0.00 0.00 36 1026.0
20260831202206 78 304 12.0 16.0 0.00 0.00 0.00 34 1026.1
20260831201206 77 268 4.0 5.0 0.00 0.00 0.00 34 1026.7
20260831200202 78 102 1.0 2.0 0.00 0.00 0.00 33 1026.5
20260831195159 77 284 6.0 7.0 0.00 0.00 0.00 33 1026.7
20260831194155 76 125 1.0 1.0 0.00 0.00 0.00 33 1026.7
20260831193150 76 169 4.0 5.0 0.00 0.00 0.00 33 1027.0
20260831192146 77 12 5.0 7.0 0.00 0.00 0.00 32 1027.1
20260831191144 77 312 9.0 11.0 0.00 0.00 0.00 33 1027.3
20260831190144 76 281 4.0 5.0 0.00 0.00 0.00 33 1027.2
20260831185141 76 279 6.0 7.0 0.00 0.00 0.00 33 1027.2
20260831184137 75 289 9.0 11.0 0.00 0.00 0.00 35 1027.3
20260831183136 75 317 5.0 6.0 0.00 0.00 0.00 34 1027.2
20260831182131 76 294 8.0 9.0 0.00 0.00 0.00 35 1027.3
20260831181131 77 248 4.0 6.0 0.00 0.00 0.00 35 1027.4
20260831180127 75 291 5.0 6.0 0.00 0.00 0.00 37 1027.6
20260831175125 76 315 5.0 8.0 0.00 0.00 0.00 36 1027.7
20260831174125 73 23 3.0 5.0 0.00 0.00 0.00 40 1027.8
20260831173120 71 65 7.0 9.0 0.00 0.00 0.00 46 1027.8
20260831172120 70 190 3.0 6.0 0.00 0.00 0.00 47 1028.2
20260831171118 70 98 1.0 2.0 0.00 0.00 0.00 47 1027.8
20260831170117 70 355 5.0 6.0 0.00 0.00 0.00 46 1027.8
20260831165115 69 69 1.0 1.0 0.00 0.00 0.00 47 1027.8
20260831164112 69 87 4.0 5.0 0.00 0.00 0.00 48 1027.8
20260831163108 68 70 3.0 3.0 0.00 0.00 0.00 49 1027.9
20260831162105 67 85 3.0 3.0 0.00 0.00 0.00 50 1027.7
20260831161104 67 79 3.0 3.0 0.00 0.00 0.00 50 1027.8
20260831160059 66 66 2.0 2.0 0.00 0.00 0.00 50 1027.6
20260831155054 66 99 0.0 0.0 0.00 0.00 0.00 51 1027.4
20260831154050 65 90 3.0 5.0 0.00 0.00 0.00 53 1027.6
20260831153047 65 81 2.0 2.0 0.00 0.00 0.00 52 1027.7
20260831152043 64 269 0.0 0.0 0.00 0.00 0.00 54 1027.8
20260831151042 63 56 1.0 1.0 0.00 0.00 0.00 55 1027.3
20260831150040 62 273 2.0 2.0 0.00 0.00 0.00 57 1027.6
20260831145036 61 202 0.0 0.0 0.00 0.00 0.00 58 1027.2
20260831144032 60 202 0.0 0.0 0.00 0.00 0.00 59 1027.7
20260831143028 59 215 1.0 1.0 0.00 0.00 0.00 59 1027.6
20260831142026 59 202 1.0 1.0 0.00 0.00 0.00 59 1027.4
20260831141026 59 203 1.0 1.0 0.00 0.00 0.00 60 1027.6
20260831140026 59 230 2.0 2.0 0.00 0.00 0.00 59 1027.0
20260831135025 58 195 2.0 2.0 0.00 0.00 0.00 60 1027.2
20260831134020 58 84 1.0 2.0 0.00 0.00 0.00 60 1027.0
20260831133016 60 271 1.0 2.0 0.00 0.00 0.00 56 1026.7
20260831132011 60 269 3.0 3.0 0.00 0.00 0.00 55 1026.5
20260831131008 59 262 3.0 3.0 0.00 0.00 0.00 57 1026.8
20260831130002 55 259 3.0 3.0 0.00 0.00 0.00 63 1026.6
20260831124958 54 244 0.0 0.0 0.00 0.00 0.00 69 1026.3
20260831123955 55 265 2.0 2.0 0.00 0.00 0.00 65 1026.6
20260831122955 57 298 3.0 5.0 0.00 0.00 0.00 62 1026.1
20260831121951 56 274 5.0 6.0 0.00 0.00 0.00 64 1026.3
20260831120948 55 268 3.0 3.0 0.00 0.00 0.00 64 1026.2
20260831115943 57 269 3.0 3.0 0.00 0.00 0.00 64 1026.1
20260831114939 56 204 1.0 1.0 0.00 0.00 0.00 62 1026.2
20260831113933 57 218 1.0 1.0 0.00 0.00 0.00 60 1025.8
20260831112928 57 269 2.0 2.0 0.00 0.00 0.00 59 1025.7
20260831111923 59 258 2.0 2.0 0.00 0.00 0.00 57 1026.0
20260831110920 60 296 1.0 2.0 0.00 0.00 0.00 55 1025.8
20260831105919 60 257 3.0 3.0 0.00 0.00 0.00 54 1025.6
20260831104916 61 253 3.0 3.0 0.00 0.00 0.00 54 1025.7
20260831103914 60 281 3.0 3.0 0.00 0.00 0.00 53 1025.5
20260831102909 59 273 3.0 5.0 0.00 0.00 0.00 55 1025.6
20260831101905 55 145 1.0 1.0 0.00 0.00 0.00 64 1025.5
20260831100902 54 287 2.0 3.0 0.00 0.00 0.00 67 1025.4
20260831095857 54 287 0.0 1.0 0.00 0.00 0.00 64 1025.2
20260831094852 53 130 1.0 1.0 0.00 0.00 0.00 65 1025.1
20260831093849 53 153 2.0 2.0 0.00 0.00 0.00 65 1024.7
20260831092847 53 289 3.0 3.0 0.00 0.00 0.00 68 1025.1
20260831091843 54 233 2.0 2.0 0.00 0.00 0.00 65 1025.0
20260831090839 53 201 2.0 2.0 0.00 0.00 0.00 66 1025.1
20260831085838 53 252 0.0 0.0 0.00 0.00 0.00 68 1024.7
20260831084838 54 195 1.0 2.0 0.00 0.00 0.00 64 1025.0
20260831083836 54 218 1.0 2.0 0.00 0.00 0.00 66 1025.0
20260831082836 55 209 0.0 0.0 0.00 0.00 0.00 62 1025.1
20260831081833 57 212 1.0 1.0 0.00 0.00 0.00 61 1024.7
20260831080830 57 255 2.0 3.0 0.00 0.00 0.00 59 1025.2
20260831075826 58 273 2.0 2.0 0.00 0.00 0.00 60 1025.2
20260831074821 58 242 1.0 1.0 0.00 0.00 0.00 57 1025.4
20260831073816 60 274 3.0 3.0 0.00 0.00 0.00 55 1025.1
20260831072816 60 300 2.0 2.0 0.00 0.00 0.00 56 1025.2
20260831071814 57 293 3.0 3.0 0.00 0.00 0.00 66 1025.7
20260831070813 57 267 2.0 2.0 0.00 0.00 0.00 62 1025.4
20260831065811 57 239 2.0 2.0 0.00 0.00 0.00 66 1025.4
20260831064811 57 289 2.0 3.0 0.00 0.00 0.00 62 1025.7
20260831063808 57 238 0.0 0.0 0.00 0.00 0.00 71 1025.7
20260831062809 56 208 1.0 2.0 0.00 0.00 0.00 68 1025.7
20260831061808 57 217 1.0 1.0 0.00 0.00 0.00 70 1026.0
20260831060805 56 241 2.0 2.0 0.00 0.00 0.00 71 1026.1
20260831055804 57 263 1.0 1.0 0.00 0.00 0.00 72 1025.8